• In Deutschland
  • Länderverzeichnis
  • Für 7 Tage
  • Wassertemperatur
  • Satellitenkarten
  • Wetterkarte
  • Widgets
  • user-avatar
    Anmelden

    Stündliche Wetter Bad Wurzach

    Heute, 14 Dezember, Donnerstag

    Zeit Temperatur Niederschläge Wind Luftdruck Luftfeuchtigkeit
    00:00 -2°C° 0,3 mm 6 m/S 690 mmHg 75%
    01:00 -1°C° 0,3 mm 6 m/S 689 mmHg 75%
    02:00 -1°C° 0,6 mm 7 m/S 689 mmHg 78%
    03:00 0°C° 0,6 mm 7 m/S 689 mmHg 81%
    04:00 0°C° 0,6 mm 8 m/S 689 mmHg 85%
    05:00 0°C° 0,7 mm 8 m/S 690 mmHg 84%
    06:00 0°C° 0,7 mm 9 m/S 690 mmHg 84%
    07:00 0°C° 0,7 mm 9 m/S 690 mmHg 83%
    08:00 0°C° 0,6 mm 9 m/S 691 mmHg 84%
    09:00 -1°C° 0,6 mm 8 m/S 691 mmHg 84%
    10:00 -1°C° 0,6 mm 7 m/S 692 mmHg 85%
    11:00 -1°C° 0,3 mm 7 m/S 692 mmHg 84%
    12:00 -1°C° 0,3 mm 7 m/S 692 mmHg 83%
    13:00 -1°C° 0,3 mm 6 m/S 691 mmHg 82%
    14:00 -1°C° 0,2 mm 6 m/S 691 mmHg 84%
    15:00 -1°C° 0,2 mm 6 m/S 690 mmHg 86%
    16:00 -1°C° 0,2 mm 5 m/S 690 mmHg 87%
    17:00 -1°C° 0,5 mm 5 m/S 689 mmHg 88%
    18:00 -1°C° 0,5 mm 5 m/S 689 mmHg 89%
    19:00 -1°C° 0,5 mm 5 m/S 689 mmHg 90%
    20:00 -1°C° 1 mm 5 m/S 688 mmHg 90%
    21:00 -1°C° 1 mm 5 m/S 688 mmHg 91%
    22:00 -1°C° 1 mm 4 m/S 687 mmHg 92%
    23:00 -1°C° 1,4 mm 4 m/S 687 mmHg 92%

    Morgen, 15 Dezember, Freitag

    Zeit Temperatur Niederschläge Wind Luftdruck Luftfeuchtigkeit
    00:00 -1°C° 1,4 mm 4 m/S 686 mmHg 92%
    01:00 -1°C° 1,4 mm 4 m/S 686 mmHg 93%
    02:00 -1°C° 1,3 mm 5 m/S 686 mmHg 91%
    03:00 -2°C° 1,3 mm 7 m/S 687 mmHg 90%
    04:00 -2°C° 1,3 mm 8 m/S 688 mmHg 88%
    05:00 -3°C° 0,2 mm 7 m/S 688 mmHg 88%
    06:00 -3°C° 0,2 mm 6 m/S 689 mmHg 87%
    07:00 -4°C° 0,2 mm 6 m/S 689 mmHg 87%
    08:00 -4°C° 0 mm 5 m/S 689 mmHg 85%
    09:00 -2°C° 0 mm 5 m/S 689 mmHg 84%
    10:00 -2°C° 0 mm 5 m/S 690 mmHg 82%
    11:00 -2°C° 0 mm 5 m/S 689 mmHg 82%
    12:00 -1°C° 0 mm 5 m/S 689 mmHg 82%
    13:00 0°C° 0 mm 5 m/S 689 mmHg 82%
    14:00 -1°C° 0 mm 4 m/S 689 mmHg 83%
    15:00 -2°C° 0 mm 4 m/S 689 mmHg 85%
    16:00 -1°C° 0 mm 3 m/S 689 mmHg 86%
    17:00 -2°C° 0 mm 3 m/S 689 mmHg 86%
    18:00 -4°C° 0 mm 3 m/S 690 mmHg 87%
    19:00 -4°C° 0 mm 2 m/S 690 mmHg 87%
    20:00 -4°C° 0,2 mm 2 m/S 690 mmHg 88%
    21:00 -4°C° 0,2 mm 2 m/S 691 mmHg 88%
    22:00 -5°C° 0,2 mm 3 m/S 691 mmHg 88%
    23:00 -4°C° 0,2 mm 3 m/S 691 mmHg 88%

    übermorgen, 16 Dezember, Samstag

    Zeit Temperatur Niederschläge Wind Luftdruck Luftfeuchtigkeit
    00:00 -4°C° 0,2 mm 3 m/S 691 mmHg 87%
    01:00 -4°C° 0,2 mm 3 m/S 692 mmHg 87%
    02:00 -4°C° 0,2 mm 3 m/S 692 mmHg 89%
    03:00 -4°C° 0,2 mm 3 m/S 692 mmHg 91%
    04:00 -3°C° 0,2 mm 4 m/S 693 mmHg 92%
    05:00 -2°C° 0,5 mm 3 m/S 693 mmHg 94%
    06:00 -2°C° 0,5 mm 3 m/S 694 mmHg 95%
    07:00 -2°C° 0,5 mm 3 m/S 694 mmHg 96%
    08:00 -2°C° 0,3 mm 3 m/S 695 mmHg 96%
    09:00 -2°C° 0,3 mm 3 m/S 695 mmHg 95%
    10:00 -2°C° 0,3 mm 3 m/S 696 mmHg 95%
    11:00 -1°C° 0,2 mm 3 m/S 696 mmHg 95%
    12:00 -1°C° 0,2 mm 3 m/S 696 mmHg 95%
    13:00 -1°C° 0,2 mm 3 m/S 697 mmHg 95%
    14:00 -1°C° 0,4 mm 3 m/S 697 mmHg 94%
    15:00 -1°C° 0,4 mm 3 m/S 697 mmHg 94%
    16:00 -1°C° 0,4 mm 3 m/S 698 mmHg 94%
    17:00 -2°C° 0,4 mm 2 m/S 698 mmHg 95%
    18:00 -2°C° 0,4 mm 2 m/S 699 mmHg 95%
    19:00 -3°C° 0,4 mm 2 m/S 699 mmHg 96%
    20:00 -3°C° 0,4 mm 2 m/S 700 mmHg 96%
    21:00 -3°C° 0,4 mm 2 m/S 701 mmHg 96%
    22:00 -3°C° 0,4 mm 2 m/S 701 mmHg 96%
    23:00 -4°C° 0,2 mm 3 m/S 701 mmHg 95%

    17 Dezember, Sonntag

    Zeit Temperatur Niederschläge Wind Luftdruck Luftfeuchtigkeit
    00:00 -4°C° 0,2 mm 3 m/S 702 mmHg 95%
    01:00 -4°C° 0,2 mm 3 m/S 702 mmHg 95%
    02:00 -5°C° 0,1 mm 3 m/S 703 mmHg 95%
    03:00 -5°C° 0,1 mm 3 m/S 703 mmHg 95%
    04:00 -5°C° 0,1 mm 3 m/S 703 mmHg 95%
    05:00 -5°C° 0,1 mm 3 m/S 704 mmHg 95%
    06:00 -5°C° 0,1 mm 4 m/S 704 mmHg 95%
    07:00 -5°C° 0,1 mm 4 m/S 704 mmHg 94%
    08:00 -5°C° 0,2 mm 4 m/S 705 mmHg 94%
    09:00 -5°C° 0,2 mm 4 m/S 705 mmHg 93%
    10:00 -5°C° 0,2 mm 5 m/S 706 mmHg 92%
    11:00 -5°C° 0,3 mm 5 m/S 706 mmHg 92%
    12:00 -5°C° 0,3 mm 5 m/S 706 mmHg 92%
    13:00 -5°C° 0,3 mm 5 m/S 706 mmHg 91%
    14:00 -5°C° 0,4 mm 5 m/S 706 mmHg 92%
    15:00 -4°C° 0,4 mm 4 m/S 706 mmHg 93%
    16:00 -4°C° 0,4 mm 4 m/S 707 mmHg 93%
    17:00 -4°C° 0,3 mm 4 m/S 707 mmHg 94%
    18:00 -4°C° 0,3 mm 4 m/S 708 mmHg 94%
    19:00 -5°C° 0,3 mm 3 m/S 708 mmHg 95%
    20:00 -5°C° 0,2 mm 3 m/S 709 mmHg 94%
    21:00 -5°C° 0,2 mm 3 m/S 709 mmHg 94%
    22:00 -5°C° 0,2 mm 3 m/S 709 mmHg 94%
    23:00 -6°C° 0 mm 3 m/S 709 mmHg 93%

    18 Dezember, Montag

    Zeit Temperatur Niederschläge Wind Luftdruck Luftfeuchtigkeit
    00:00 -7°C° 0 mm 4 m/S 709 mmHg 93%
    01:00 -7°C° 0 mm 4 m/S 709 mmHg 92%
    02:00 -7°C° 0 mm 4 m/S 709 mmHg 91%
    03:00 -6°C° 0 mm 5 m/S 708 mmHg 90%
    04:00 -6°C° 0 mm 5 m/S 708 mmHg 88%
    05:00 -5°C° 0,5 mm 6 m/S 707 mmHg 89%
    06:00 -6°C° 0,5 mm 7 m/S 707 mmHg 90%
    07:00 -6°C° 0,5 mm 8 m/S 706 mmHg 90%
    08:00 -5°C° 1,6 mm 8 m/S 706 mmHg 91%
    09:00 -4°C° 1,6 mm 8 m/S 705 mmHg 92%
    10:00 -4°C° 1,6 mm 8 m/S 705 mmHg 93%
    11:00 -2°C° 1,7 mm 8 m/S 704 mmHg 94%
    12:00 -2°C° 1,7 mm 7 m/S 704 mmHg 95%
    13:00 -2°C° 1,7 mm 7 m/S 703 mmHg 96%
    14:00 -2°C° 0,9 mm 7 m/S 703 mmHg 97%
    15:00 -2°C° 0,9 mm 6 m/S 703 mmHg 98%
    16:00 -2°C° 0,9 mm 6 m/S 703 mmHg 99%
    17:00 -1°C° 0,6 mm 5 m/S 704 mmHg 99%
    18:00 -1°C° 0,6 mm 4 m/S 704 mmHg 98%
    19:00 -1°C° 0,6 mm 4 m/S 705 mmHg 98%
    20:00 -1°C° 0,2 mm 3 m/S 705 mmHg 98%
    21:00 -1°C° 0,2 mm 2 m/S 706 mmHg 97%
    22:00 -2°C° 0,2 mm 2 m/S 706 mmHg 96%
    23:00 -3°C° 0,1 mm 2 m/S 707 mmHg 95%

    19 Dezember, Dienstag

    Zeit Temperatur Niederschläge Wind Luftdruck Luftfeuchtigkeit
    00:00 -3°C° 0,1 mm 2 m/S 707 mmHg 95%
    01:00 -4°C° 0,1 mm 2 m/S 707 mmHg 95%
    02:00 -4°C° 0 mm 2 m/S 708 mmHg 94%
    03:00 -2°C° 0 mm 1 m/S 708 mmHg 94%
    04:00 -1°C° 0 mm 1 m/S 708 mmHg 93%
    05:00 -1°C° 0 mm 1 m/S 709 mmHg 93%
    06:00 -1°C° 0 mm 1 m/S 709 mmHg 93%
    07:00 -1°C° 0 mm 1 m/S 709 mmHg 93%
    08:00 -1°C° 0 mm 1 m/S 710 mmHg 94%
    09:00 -1°C° 0 mm 1 m/S 710 mmHg 94%
    10:00 -1°C° 0 mm 1 m/S 710 mmHg 94%
    11:00 0°C° 0 mm 1 m/S 710 mmHg 95%
    12:00 +1°C° 0 mm 1 m/S 710 mmHg 97%
    13:00 +1°C° 0 mm 1 m/S 710 mmHg 98%
    14:00 0°C° 0 mm 1 m/S 710 mmHg 98%
    15:00 -1°C° 0 mm 0 m/S 710 mmHg 97%
    16:00 -2°C° 0 mm 0 m/S 710 mmHg 96%
    17:00 -2°C° 0 mm 0 m/S 711 mmHg 96%
    18:00 -3°C° 0 mm 0 m/S 711 mmHg 96%
    19:00 -3°C° 0 mm 0 m/S 712 mmHg 96%
    20:00 -3°C° 0 mm 0 m/S 712 mmHg 95%
    21:00 -2°C° 0 mm 1 m/S 713 mmHg 95%
    22:00 -3°C° 0 mm 1 m/S 713 mmHg 94%
    23:00 -3°C° 0 mm 1 m/S 713 mmHg 94%
    Mehr zeigen